Regional Weather Roundup
Issued by NWS

Home | Current Version | Previous Version | Graphics & Text | Print | Product List | Glossary On
Versions: 1 2 3 4 5 6 7 8 9 10 11 12 13 14 15 16 17 18 19 20 21 22 23 24 25 26 27 28 29 30 31 32 33 34 35 36 37 38 39 40 41 42 43 44 45 46 47 48 49 50
000
ASUS43 KBIS 270910
RWRND

NORTH DAKOTA REGIONAL WEATHER ROUNDUP
NATIONAL WEATHER SERVICE BISMARCK ND
300 AM CST TUE JAN 27 2015

NOTE: "FAIR" INDICATES FEW OR NO CLOUDS BELOW 12,000 FEET WITH NO
SIGNIFICANT WEATHER AND/OR OBSTRUCTIONS TO VISIBILITY.


NDZ001>003-009>011-017-271000-
NORTHWEST NORTH DAKOTA

CITY           SKY/WX    TMP DP  RH WIND       PRES   REMARKS
WILLISTON      PTCLDY    28  26  92 N5        29.86S
MINOT          PTCLDY    30  27  88 SE5       29.88F
MINOT AFB      PTCLDY    28  28 100 S6        29.88F
$$

NDZ018>021-031>035-040>046-271000-
SOUTHWEST NORTH DAKOTA

CITY           SKY/WX    TMP DP  RH WIND       PRES   REMARKS
BISMARCK       CLEAR     30  28  92 E6        29.95R
DICKINSON      CLEAR     34  29  82 S6        29.86S
GARRISON         N/A     30  29  96 SE5       29.89F
HETTINGER ARPT CLEAR     32  27  81 CALM      29.90F
$$

NDZ004>008-012>016-024-026-027-054-271000-
NORTHEAST NORTH DAKOTA

CITY           SKY/WX    TMP DP  RH WIND       PRES   REMARKS
GRAND FORKS    FOG       26  24  92 S8        30.05R VSB 1/2 WCI  18
GRND FRKS AFB  FOG       23  21  94 S7        30.04S VSB 3/4 WCI  14
DEVILS LAKE    CLEAR     21  18  86 SE5       29.96S WCI  15
$$

NDZ022-023-025-028>030-036>039-047>053-271000-
SOUTHEAST NORTH DAKOTA

CITY           SKY/WX    TMP DP  RH WIND       PRES   REMARKS
FARGO          CLOUDY    28  26  92 CALM      30.06R FOG
JAMESTOWN      CLEAR     26  25  96 CALM      29.98S
$$



USA.gov is the U.S. government's official web portal to all federal, state and local government web resources and services.